Flag for Czech Republic Weather past 2 weeks in Liberec, Czech Republic

Now
31 °F

Chilly.


Feels Like: 23 °F
Forecast: 22 / 33 °F
Wind: 8 mph from Southeast

Location: Liberec

Current Time: Jan 30, 2015 at 2:28:17 AM

Latest Report: Jan 30, 2015 at 1:00 AM


Visibility: 13 mi

Pressure: 28.94 "Hg

Humidity: 84%

Dew point: 26 °F

Location of LiberecLocation

Historic Weather in Liberec — Graph

°F

Liberec temperature yesterday

Maximum temperature yesterday: 34 °F (at 4:00 PM)
Minimum temperature yesterday: 30 °F (at 1:00 AM)
Average temperature yesterday: 32 °F

Past Weeks' High & Low Weather Summary

 TemperatureHumidityPressure
High42 °F (Jan 16, 4:00 PM)100% (Jan 17, 8:00 PM)30.34 "Hg (Jan 17, 8:00 PM)
Low27 °F (Jan 24, 7:00 PM)68% (Jan 29, 12:00 PM)28.94 "Hg (Jan 30, 1:00 AM)
Average33 °F90%29.97 "Hg
* Reported Jan 15 1:00 AM — Jan 30 1:00 AM, Liberec, Weather by CustomWeather, © 2014

Note: Actual official high and low records may vary slightly from our data, if they occured in-between our weather recording intervals... More about our weather records

Advertising

Liberec weather history for previous 24 hours

 ConditionsComfort  
Time TempWeatherWind HumidityBarometerVisibility
1:00 AM
Jan 30
31 °FChilly.8 mph84%28.94 "Hg12 mi
12:00 AM31 °FLight snow. Overcast.7 mph83%29.00 "Hg11 mi
11:00 PM
Jan 29
31 °FChilly.6 mph78%29.03 "Hg12 mi
10:00 PM31 °FChilly.6 mph76%29.09 "Hg12 mi
9:00 PM32 °FSnow flurries. Overcast.7 mph74%29.12 "Hg16 mi
8:00 PM33 °FSnow flurries. Overcast.7 mph72%29.15 "Hg19 mi
7:00 PM33 °FOvercast.7 mph71%29.18 "Hg19 mi
6:00 PM33 °FChilly.7 mph72%29.23 "Hg12 mi
5:00 PM33 °FRain showers. Overcast.7 mph73%29.23 "Hg12 mi
4:00 PM34 °FOvercast.7 mph71%29.26 "Hg25 mi
3:00 PM33 °FOvercast.6 mph70%29.29 "Hg22 mi
2:00 PM33 °FPartly sunny.6 mph69%29.32 "Hg22 mi
1:00 PM33 °FPartly sunny.6 mph72%29.35 "Hg19 mi
12:00 PM33 °FPartly sunny.8 mph68%29.38 "Hg19 mi
11:00 AM33 °FPartly sunny.5 mph72%29.41 "Hg19 mi
10:00 AM33 °FLight snow. Partly sunny.6 mph73%29.44 "Hg11 mi
9:00 AM31 °FScattered clouds.5 mph79%29.44 "Hg14 mi
8:00 AM31 °FPartly sunny.5 mph84%29.41 "Hg11 mi
7:00 AM31 °FPassing clouds.7 mph78%29.41 "Hg14 mi
6:00 AM32 °FChilly.6 mph82%29.41 "Hg12 mi
5:00 AM33 °FSnow flurries. Overcast.6 mph92%29.41 "Hg1 mi
4:00 AM32 °FLight snow. Overcast.5 mph97%29.41 "Hg4 mi
3:00 AM31 °FLight snow. Overcast.6 mph95%29.41 "Hg10 mi
2:00 AM31 °FSnow. Overcast.5 mph98%29.44 "Hg1 mi
Weather by CustomWeather, © 2014

See weather overviewHow to use our weather pages